^^
Datos históricos de la estación: Murcia-Puente Tocinos
Diario Informe para Enero 28, 2020 Unidades:  Métrico    Inglés   Ambas
Diario Semanal Mensual Anual Configurable
  Máximo: Mínimo: Media:
Temperatura: 20.5 °C 7.1 °C 13.5 °C
Punto de rocio: 10.6 °C 4.7 °C 7.8 °C
Humedad: 89% 48% 71%
Velocidad viento: 12.9km/h 0.0km/h 6.4km/h
Racha viento: 24.1km/h - -
Viento- - SSW
Presión: 1023.6 hPa 1020.2 hPa -
Precipitación: 0.0 mm    
Historical Graphs
 
 
Tabla de datos para Enero 28, 2020
Hora Temperatura Punto de rocio Presión Viento Velocidad viento Racha viento Humedad Intensidad lluvia(por hora) Nubes
00:00 10.3 °C 8.2 °C 1022.8 hPa WNW 3.2 km/h 6.4 km/h 87% 0.0 mm CLR
00:05 10.2 °C 8.3 °C 1022.8 hPa WNW 3.2 km/h 8.0 km/h 88% 0.0 mm CLR
00:10 10.1 °C 8.2 °C 1022.9 hPa West 3.2 km/h 8.0 km/h 88% 0.0 mm CLR
00:15 10.0 °C 8.1 °C 1022.9 hPa West 3.2 km/h 3.2 km/h 88% 0.0 mm CLR
00:20 10.0 °C 8.3 °C 1022.9 hPa WSW 3.2 km/h 8.0 km/h 89% 0.0 mm CLR
00:25 10.1 °C 8.4 °C 1023.0 hPa SSW 3.2 km/h 8.0 km/h 89% 0.0 mm CLR
00:30 10.2 °C 8.4 °C 1023.0 hPa SSW 3.2 km/h 8.0 km/h 89% 0.0 mm CLR
00:35 10.2 °C 8.3 °C 1023.0 hPa SSW 3.2 km/h 3.2 km/h 88% 0.0 mm CLR
00:40 10.2 °C 8.3 °C 1022.8 hPa South 3.2 km/h 9.7 km/h 88% 0.0 mm CLR
00:45 10.2 °C 8.3 °C 1022.8 hPa South 4.8 km/h 11.3 km/h 88% 0.0 mm CLR
00:50 10.1 °C 8.2 °C 1022.8 hPa South 4.8 km/h 11.3 km/h 88% 0.0 mm CLR
00:55 9.9 °C 8.0 °C 1022.6 hPa South 8.0 km/h 14.5 km/h 88% 0.0 mm CLR
01:00 9.8 °C 8.1 °C 1022.6 hPa South 8.0 km/h 14.5 km/h 89% 0.0 mm CLR
01:05 9.8 °C 8.1 °C 1022.6 hPa SSW 8.0 km/h 11.3 km/h 89% 0.0 mm CLR
01:10 9.8 °C 8.1 °C 1022.7 hPa SW 8.0 km/h 11.3 km/h 89% 0.0 mm CLR
01:15 9.8 °C 8.1 °C 1022.7 hPa WSW 4.8 km/h 8.0 km/h 89% 0.0 mm CLR
01:20 9.7 °C 8.0 °C 1022.7 hPa WSW 4.8 km/h 8.0 km/h 89% 0.0 mm CLR
01:25 9.7 °C 7.9 °C 1022.8 hPa WSW 3.2 km/h 8.0 km/h 89% 0.0 mm CLR
01:30 9.6 °C 7.9 °C 1022.8 hPa WSW 3.2 km/h 9.7 km/h 89% 0.0 mm CLR
01:35 9.7 °C 8.0 °C 1022.8 hPa SSW 4.8 km/h 11.3 km/h 89% 0.0 mm CLR
01:40 9.7 °C 7.7 °C 1022.6 hPa South 4.8 km/h 11.3 km/h 87% 0.0 mm CLR
01:45 9.7 °C 7.4 °C 1022.6 hPa SSE 8.0 km/h 11.3 km/h 86% 0.0 mm CLR
01:50 9.6 °C 7.2 °C 1022.6 hPa SSE 8.0 km/h 9.7 km/h 85% 0.0 mm CLR
01:55 9.3 °C 6.9 °C 1022.5 hPa SSE 8.0 km/h 11.3 km/h 85% 0.0 mm CLR
02:00 9.2 °C 6.8 °C 1022.5 hPa South 8.0 km/h 8.0 km/h 85% 0.0 mm CLR
02:05 9.2 °C 7.0 °C 1022.5 hPa SSW 3.2 km/h 8.0 km/h 86% 0.0 mm CLR
02:10 9.2 °C 7.0 °C 1022.6 hPa SW 3.2 km/h 8.0 km/h 86% 0.0 mm CLR
02:15 9.2 °C 7.2 °C 1022.6 hPa SW 4.8 km/h 8.0 km/h 87% 0.0 mm CLR
02:20 9.2 °C 7.2 °C 1022.6 hPa SW 4.8 km/h 8.0 km/h 87% 0.0 mm CLR
02:25 9.2 °C 7.0 °C 1022.6 hPa SW 3.2 km/h 4.8 km/h 86% 0.0 mm CLR
02:30 9.1 °C 6.9 °C 1022.6 hPa SW 3.2 km/h   86% 0.0 mm CLR
02:35 9.1 °C 7.1 °C 1022.6 hPa Calm   8.0 km/h 87% 0.0 mm CLR
02:40 9.1 °C 7.0 °C 1022.5 hPa Calm   8.0 km/h 87% 0.0 mm CLR
02:45 9.0 °C 6.9 °C 1022.5 hPa SSW 4.8 km/h 8.0 km/h 87% 0.0 mm CLR
02:50 8.9 °C 6.9 °C 1022.5 hPa South 4.8 km/h 8.0 km/h 87% 0.0 mm CLR
02:55 8.9 °C 6.8 °C 1022.4 hPa South 3.2 km/h 8.0 km/h 87% 0.0 mm CLR
03:00 8.8 °C 6.8 °C 1022.4 hPa SSW 3.2 km/h 9.7 km/h 87% 0.0 mm CLR
03:05 8.8 °C 6.8 °C 1022.4 hPa SW 4.8 km/h 9.7 km/h 87% 0.0 mm CLR
03:10 8.8 °C 6.6 °C 1022.4 hPa WSW 4.8 km/h 8.0 km/h 86% 0.0 mm CLR
03:15 8.8 °C 6.6 °C 1022.4 hPa West 3.2 km/h 6.4 km/h 86% 0.0 mm CLR
03:20 8.7 °C 6.5 °C 1022.4 hPa WSW 3.2 km/h 8.0 km/h 86% 0.0 mm CLR
03:25 8.7 °C 6.5 °C 1022.2 hPa SSW 4.8 km/h 9.7 km/h 86% 0.0 mm CLR
03:30 8.7 °C 6.5 °C 1022.2 hPa SW 4.8 km/h 9.7 km/h 86% 0.0 mm CLR
03:35 8.7 °C 6.4 °C 1022.2 hPa WSW 4.8 km/h 9.7 km/h 86% 0.0 mm CLR
03:40 8.6 °C 6.4 °C 1022.2 hPa WSW 4.8 km/h 12.9 km/h 86% 0.0 mm CLR
03:45 8.6 °C 6.4 °C 1022.2 hPa SW 4.8 km/h 11.3 km/h 86% 0.0 mm CLR
03:50 8.6 °C 6.4 °C 1022.2 hPa SW 4.8 km/h 8.0 km/h 86% 0.0 mm CLR
03:55 8.7 °C 6.5 °C 1022.2 hPa SSW 4.8 km/h 8.0 km/h 86% 0.0 mm CLR
04:00 8.7 °C 6.5 °C 1022.2 hPa SSW 4.8 km/h 8.0 km/h 86% 0.0 mm CLR
04:05 8.6 °C 6.2 °C 1022.2 hPa SSE 3.2 km/h 8.0 km/h 85% 0.0 mm CLR
04:10 8.4 °C 6.2 °C 1022.1 hPa SSE 3.2 km/h 8.0 km/h 86% 0.0 mm CLR
04:15 8.4 °C 6.2 °C 1022.1 hPa South 4.8 km/h 9.7 km/h 86% 0.0 mm CLR
04:20 8.3 °C 6.3 °C 1022.1 hPa South 4.8 km/h 9.7 km/h 87% 0.0 mm CLR
04:25 8.2 °C 6.2 °C 1022.1 hPa South 8.0 km/h 9.7 km/h 87% 0.0 mm CLR
04:30 8.2 °C 6.2 °C 1022.1 hPa SSW 8.0 km/h 9.7 km/h 87% 0.0 mm CLR
04:35 8.2 °C 6.2 °C 1022.1 hPa SSW 8.0 km/h 11.3 km/h 87% 0.0 mm CLR
04:40 8.3 °C 6.3 °C 1022.0 hPa SW 8.0 km/h 11.3 km/h 87% 0.0 mm CLR
04:45 8.3 °C 6.2 °C 1022.0 hPa SW 8.0 km/h 11.3 km/h 86% 0.0 mm CLR
04:50 8.4 °C 6.0 °C 1022.0 hPa SSW 8.0 km/h 9.7 km/h 85% 0.0 mm CLR
04:55 8.3 °C 5.9 °C 1022.1 hPa SSE 6.4 km/h 11.1 km/h 85% 0.0 mm CLR
05:00 8.2 °C 5.8 °C 1022.1 hPa South 8.0 km/h 12.9 km/h 85% 0.0 mm CLR
05:05 8.1 °C 5.7 °C 1022.1 hPa South 6.9 km/h 5.6 km/h 85% 0.0 mm CLR
05:10 8.1 °C 5.9 °C 1022.1 hPa South 8.0 km/h 9.7 km/h 86% 0.0 mm CLR
05:15 8.1 °C 5.9 °C 1022.1 hPa SW 4.7 km/h 7.4 km/h 86% 0.0 mm CLR
05:20 8.1 °C 5.9 °C 1022.1 hPa SW 3.2 km/h 9.7 km/h 86% 0.0 mm CLR
05:25 8.1 °C 5.9 °C 1022.0 hPa SW 4.8 km/h 9.7 km/h 86% 0.0 mm CLR
05:30 8.2 °C 6.0 °C 1022.0 hPa SW 4.8 km/h 11.3 km/h 86% 0.0 mm CLR
05:35 8.2 °C 6.0 °C 1022.0 hPa WSW 4.8 km/h 8.0 km/h 86% 0.0 mm CLR
05:40 8.2 °C 6.0 °C 1022.0 hPa WSW 4.8 km/h 8.0 km/h 86% 0.0 mm CLR
05:45 8.1 °C 5.7 °C 1022.0 hPa WNW 3.2 km/h 8.0 km/h 85% 0.0 mm CLR
05:50 8.0 °C 5.6 °C 1022.0 hPa West 3.2 km/h 8.0 km/h 85% 0.0 mm CLR
05:55 7.9 °C 5.6 °C 1022.0 hPa WSW 3.2 km/h 8.0 km/h 85% 0.0 mm CLR
06:00 7.8 °C 5.6 °C 1022.0 hPa WSW 3.2 km/h 6.4 km/h 86% 0.0 mm CLR
06:05 7.9 °C 5.7 °C 1022.0 hPa SSW 3.2 km/h 8.0 km/h 86% 0.0 mm CLR
06:10 7.9 °C 5.7 °C 1022.0 hPa South 3.2 km/h 8.0 km/h 86% 0.0 mm CLR
06:15 7.9 °C 5.7 °C 1022.0 hPa SE 3.2 km/h 6.4 km/h 86% 0.0 mm CLR
06:20 7.8 °C 5.6 °C 1022.0 hPa SE 3.2 km/h 9.7 km/h 86% 0.0 mm CLR
06:25 7.7 °C 5.5 °C 1022.0 hPa SSE 3.2 km/h 9.7 km/h 86% 0.0 mm CLR
06:30 7.4 °C 5.2 °C 1022.0 hPa SSE 4.7 km/h 7.4 km/h 86% 0.0 mm CLR
06:35 7.4 °C 5.4 °C 1022.0 hPa SSE 4.8 km/h 8.0 km/h 87% 0.0 mm CLR
06:40 7.4 °C 5.4 °C 1021.9 hPa SSW 5.8 km/h 11.1 km/h 87% 0.0 mm CLR
06:45 7.6 °C 5.6 °C 1021.9 hPa SW 6.9 km/h 9.3 km/h 87% 0.0 mm CLR
06:50 7.8 °C 5.4 °C 1021.9 hPa SSW 8.0 km/h 11.3 km/h 85% 0.0 mm CLR
06:55 7.9 °C 5.4 °C 1022.0 hPa SSW 8.0 km/h 14.5 km/h 84% 0.0 mm CLR
07:00 7.9 °C 5.2 °C 1022.0 hPa SSW 8.0 km/h 12.9 km/h 83% 0.0 mm CLR
07:05 7.9 °C 5.2 °C 1022.0 hPa SSW 8.0 km/h 8.0 km/h 83% 0.0 mm CLR
07:10 7.9 °C 5.2 °C 1022.0 hPa SW 8.0 km/h 8.0 km/h 83% 0.0 mm CLR
07:15 7.9 °C 5.2 °C 1022.0 hPa SW 4.8 km/h 9.7 km/h 83% 0.0 mm CLR
07:20 7.8 °C 5.1 °C 1022.0 hPa WSW 4.8 km/h 9.7 km/h 83% 0.0 mm CLR
07:25 7.9 °C 5.2 °C 1022.1 hPa SW 4.8 km/h 9.7 km/h 83% 0.0 mm CLR
07:30 7.9 °C 5.2 °C 1022.1 hPa SSW 4.8 km/h 8.0 km/h 83% 0.0 mm CLR
07:35 7.9 °C 5.2 °C 1022.1 hPa SSW 4.8 km/h 9.7 km/h 83% 0.0 mm CLR
07:40 8.0 °C 5.3 °C 1022.2 hPa SSW 4.8 km/h 9.7 km/h 83% 0.0 mm CLR
07:45 8.1 °C 5.4 °C 1022.2 hPa SSW 8.0 km/h 11.3 km/h 83% 0.0 mm CLR
07:50 8.1 °C 5.4 °C 1022.2 hPa SW 8.0 km/h 9.7 km/h 83% 0.0 mm CLR
07:55 8.0 °C 5.3 °C 1022.4 hPa SW 4.8 km/h 8.0 km/h 83% 0.0 mm CLR
08:00 7.9 °C 5.2 °C 1022.4 hPa WSW 4.8 km/h 8.0 km/h 83% 0.0 mm CLR
08:05 7.9 °C 5.2 °C 1022.4 hPa SW 1.6 km/h   83% 0.0 mm CLR
08:10 7.9 °C 5.2 °C 1022.6 hPa SW 1.6 km/h 6.4 km/h 83% 0.0 mm CLR
08:15 7.8 °C 5.1 °C 1022.6 hPa South 3.2 km/h 11.3 km/h 83% 0.0 mm CLR
08:20 7.4 °C 4.9 °C 1022.6 hPa SE 3.2 km/h 11.3 km/h 84% 0.0 mm CLR
08:25 7.2 °C 4.7 °C 1022.6 hPa SE 8.0 km/h 9.7 km/h 84% 0.0 mm CLR
08:30 7.1 °C 4.9 °C 1022.6 hPa SSE 8.0 km/h 8.0 km/h 86% 0.0 mm CLR
08:35 7.2 °C 5.0 °C 1022.6 hPa SSE 3.2 km/h 8.0 km/h 86% 0.0 mm CLR
08:40 7.2 °C 5.1 °C 1022.8 hPa SSE 3.2 km/h 8.0 km/h 86% 0.0 mm CLR
08:45 7.3 °C 5.1 °C 1022.8 hPa SSE 3.2 km/h 6.4 km/h 86% 0.0 mm CLR
08:50 7.4 °C 5.2 °C 1022.8 hPa SSE 3.2 km/h 8.0 km/h 86% 0.0 mm CLR
08:55 7.7 °C 5.5 °C 1022.8 hPa SSW 3.2 km/h 8.0 km/h 86% 0.0 mm CLR
09:00 7.8 °C 5.4 °C 1022.8 hPa SW 3.2 km/h 8.0 km/h 85% 0.0 mm CLR
09:05 8.1 °C 5.6 °C 1022.8 hPa SW 3.2 km/h 9.7 km/h 84% 0.0 mm CLR
09:10 8.3 °C 5.6 °C 1022.7 hPa SW 3.2 km/h 9.7 km/h 83% 0.0 mm CLR
09:15 8.5 °C 5.6 °C 1022.7 hPa SW 4.8 km/h 4.8 km/h 82% 0.0 mm CLR
09:20 8.7 °C 5.8 °C 1022.7 hPa SW 4.8 km/h 6.4 km/h 82% 0.0 mm CLR
09:25 8.7 °C 5.6 °C 1022.9 hPa West 3.2 km/h 6.4 km/h 81% 0.0 mm CLR
09:30 8.7 °C 5.8 °C 1022.9 hPa WNW 3.2 km/h 1.6 km/h 82% 0.0 mm CLR
09:35 8.8 °C 5.7 °C 1022.9 hPa Calm   8.0 km/h 81% 0.0 mm CLR
09:40 8.9 °C 5.8 °C 1022.9 hPa Calm   4.8 km/h 81% 0.0 mm CLR
09:45 9.2 °C 5.9 °C 1022.9 hPa ENE 1.6 km/h 4.8 km/h 80% 0.0 mm CLR
09:50 9.4 °C 6.1 °C 1022.9 hPa East 1.6 km/h 6.4 km/h 80% 0.0 mm CLR
09:55 9.6 °C 6.1 °C 1023.1 hPa East 3.2 km/h 4.8 km/h 79% 0.0 mm CLR
10:00 9.8 °C 6.4 °C 1023.1 hPa ESE 3.2 km/h 9.7 km/h 79% 0.0 mm CLR
10:05 9.9 °C 6.3 °C 1023.1 hPa ENE 3.2 km/h 8.0 km/h 78% 0.0 mm CLR
10:10 10.1 °C 6.6 °C 1023.2 hPa ENE 3.2 km/h 8.0 km/h 79% 0.0 mm CLR
10:15 10.3 °C 6.6 °C 1023.2 hPa East 3.2 km/h 8.0 km/h 78% 0.0 mm CLR
10:20 10.4 °C 6.7 °C 1023.2 hPa ESE 3.2 km/h 8.0 km/h 78% 0.0 mm CLR
10:25 10.6 °C 6.9 °C 1023.4 hPa SSE 4.8 km/h 11.3 km/h 78% 0.0 mm CLR
10:30 10.7 °C 6.7 °C 1023.4 hPa SSE 4.8 km/h 11.3 km/h 76% 0.0 mm CLR
10:35 10.9 °C 6.7 °C 1023.4 hPa SE 8.0 km/h 9.7 km/h 75% 0.0 mm CLR
10:40 11.3 °C 6.6 °C 1023.6 hPa SE 8.0 km/h 8.0 km/h 73% 0.0 mm CLR
10:45 11.6 °C 6.5 °C 1023.6 hPa SE 5.0 km/h 7.4 km/h 71% 0.0 mm CLR
10:50 11.9 °C 6.8 °C 1023.6 hPa ESE 5.0 km/h 5.8 km/h 71% 0.0 mm CLR
10:55 12.2 °C 7.1 °C 1023.4 hPa SE 8.0 km/h 11.3 km/h 71% 0.0 mm CLR
11:00 12.4 °C 7.1 °C 1023.4 hPa SE 8.0 km/h 14.5 km/h 70% 0.0 mm CLR
11:05 12.6 °C 7.2 °C 1023.4 hPa SSE 8.0 km/h 14.5 km/h 70% 0.0 mm CLR
11:10 12.6 °C 7.3 °C 1023.5 hPa SSE 8.0 km/h 14.5 km/h 70% 0.0 mm CLR
11:15 12.8 °C 7.2 °C 1023.5 hPa South 9.7 km/h 12.9 km/h 69% 0.0 mm CLR
11:20 13.0 °C 7.0 °C 1023.5 hPa SSW 9.7 km/h 11.3 km/h 67% 0.0 mm CLR
11:25 13.3 °C 7.1 °C 1023.5 hPa SSW 8.0 km/h 9.7 km/h 66% 0.0 mm CLR
11:30 13.8 °C 7.1 °C 1023.5 hPa SSW 8.0 km/h 11.3 km/h 64% 0.0 mm CLR
11:35 14.2 °C 7.0 °C 1023.5 hPa SSW 4.8 km/h 12.9 km/h 62% 0.0 mm CLR
11:40 14.4 °C 7.2 °C 1023.4 hPa SSW 4.8 km/h 14.5 km/h 62% 0.0 mm CLR
11:45 14.8 °C 7.6 °C 1023.4 hPa South 9.7 km/h 16.1 km/h 62% 0.0 mm CLR
11:50 14.9 °C 7.4 °C 1023.4 hPa SSE 9.7 km/h 17.7 km/h 61% 0.0 mm CLR
11:55 15.1 °C 7.1 °C 1023.3 hPa South 9.7 km/h 11.3 km/h 59% 0.0 mm CLR
12:00 15.1 °C 7.2 °C 1023.3 hPa South 9.7 km/h 12.9 km/h 59% 0.0 mm CLR
12:05 15.2 °C 7.2 °C 1023.3 hPa SSW 8.0 km/h 11.3 km/h 59% 0.0 mm CLR
12:10 15.2 °C 7.0 °C 1023.2 hPa SSW 8.0 km/h 11.3 km/h 58% 0.0 mm CLR
12:15 15.2 °C 7.2 °C 1023.2 hPa SSW 8.0 km/h 11.3 km/h 59% 0.0 mm CLR
12:20 15.3 °C 7.3 °C 1023.2 hPa SSW 8.0 km/h 8.0 km/h 59% 0.0 mm CLR
12:25 15.4 °C 7.4 °C 1023.0 hPa SSW 4.8 km/h 11.3 km/h 59% 0.0 mm CLR
12:30 15.7 °C 7.2 °C 1023.0 hPa SSW 4.8 km/h 11.3 km/h 57% 0.0 mm CLR
12:35 15.9 °C 7.3 °C 1023.0 hPa SSW 8.0 km/h 14.5 km/h 57% 0.0 mm CLR
12:40 16.0 °C 7.2 °C 1022.9 hPa SSW 8.0 km/h 14.5 km/h 56% 0.0 mm CLR
12:45 16.2 °C 7.4 °C 1022.9 hPa SSW 8.0 km/h 12.9 km/h 56% 0.0 mm CLR
12:50 16.3 °C 7.5 °C 1022.9 hPa SSW 8.0 km/h 11.3 km/h 56% 0.0 mm CLR
12:55 16.6 °C 7.8 °C 1022.7 hPa SSW 8.0 km/h 12.9 km/h 56% 0.0 mm CLR
13:00 16.8 °C 7.7 °C 1022.7 hPa SSW 8.0 km/h 16.1 km/h 55% 0.0 mm CLR
13:05 16.8 °C 7.7 °C 1022.7 hPa SSW 9.7 km/h 14.5 km/h 55% 0.0 mm CLR
13:10 16.9 °C 7.8 °C 1022.3 hPa SSW 9.7 km/h 12.9 km/h 55% 0.0 mm CLR
13:15 17.1 °C 7.7 °C 1022.3 hPa SSW 9.7 km/h 17.7 km/h 54% 0.0 mm CLR
13:20 17.3 °C 7.8 °C 1022.3 hPa SSW 9.7 km/h 16.1 km/h 54% 0.0 mm CLR
13:25 17.4 °C 7.7 °C 1021.9 hPa SSW 9.7 km/h 12.9 km/h 53% 0.0 mm CLR
13:30 17.4 °C 7.4 °C 1021.9 hPa SSW 9.7 km/h 14.5 km/h 52% 0.0 mm CLR
13:35 17.6 °C 7.6 °C 1021.9 hPa SSW 8.0 km/h 14.5 km/h 52% 0.0 mm CLR
13:40 17.6 °C 7.6 °C 1021.7 hPa SSW 8.0 km/h 11.3 km/h 52% 0.0 mm CLR
13:45 17.7 °C 7.7 °C 1021.7 hPa SSW 8.0 km/h 9.7 km/h 52% 0.0 mm CLR
13:50 17.9 °C 7.7 °C 1021.7 hPa SW 8.0 km/h 12.9 km/h 51% 0.0 mm CLR
13:55 18.1 °C 7.8 °C 1021.3 hPa SW 8.0 km/h 11.3 km/h 51% 0.0 mm CLR
14:00 18.1 °C 8.1 °C 1021.3 hPa SW 8.0 km/h 17.7 km/h 52% 0.0 mm CLR
14:05 18.1 °C 8.1 °C 1021.3 hPa SW 9.7 km/h 14.5 km/h 52% 0.0 mm CLR
14:10 18.3 °C 8.3 °C 1021.1 hPa SW 9.7 km/h 9.7 km/h 52% 0.0 mm CLR
14:15 18.6 °C 8.2 °C 1021.1 hPa SW 8.0 km/h 9.7 km/h 51% 0.0 mm CLR
14:20 18.7 °C 8.1 °C 1021.1 hPa SW 8.0 km/h 11.3 km/h 50% 0.0 mm CLR
14:25 18.8 °C 8.2 °C 1020.9 hPa South 8.0 km/h 11.3 km/h 50% 0.0 mm CLR
14:30 18.8 °C 8.2 °C 1020.9 hPa South 8.0 km/h 12.9 km/h 50% 0.0 mm CLR
14:35 18.9 °C 7.9 °C 1020.9 hPa SSW 8.0 km/h 14.5 km/h 49% 0.0 mm CLR
14:40 19.0 °C 8.3 °C 1020.5 hPa SSW 8.0 km/h 12.9 km/h 50% 0.0 mm CLR
14:45 19.2 °C 8.2 °C 1020.5 hPa SSW 8.0 km/h 11.3 km/h 49% 0.0 mm CLR
14:50 19.2 °C 8.2 °C 1020.5 hPa SSW 8.0 km/h 12.9 km/h 49% 0.0 mm CLR
14:55 19.3 °C 8.3 °C 1020.4 hPa SSW 8.0 km/h 14.5 km/h 49% 0.0 mm CLR
15:00 19.6 °C 8.6 °C 1020.4 hPa South 8.0 km/h 9.7 km/h 49% 0.0 mm CLR
15:05 19.7 °C 8.4 °C 1020.4 hPa SW 6.9 km/h 11.1 km/h 48% 0.0 mm CLR
15:10 19.8 °C 8.4 °C 1020.4 hPa SW 8.0 km/h 11.3 km/h 48% 0.0 mm CLR
15:15 19.9 °C 8.6 °C 1020.4 hPa SSW 8.0 km/h 14.5 km/h 48% 0.0 mm CLR
15:20 19.7 °C 8.4 °C 1020.4 hPa SW 8.0 km/h 16.1 km/h 48% 0.0 mm CLR
15:25 19.8 °C 8.8 °C 1020.3 hPa SW 9.7 km/h 12.9 km/h 49% 0.0 mm CLR
15:30 19.9 °C 8.9 °C 1020.3 hPa SW 9.7 km/h 14.5 km/h 49% 0.0 mm CLR
15:35 19.9 °C 9.2 °C 1020.3 hPa SSW 9.7 km/h 16.1 km/h 50% 0.0 mm CLR
15:40 20.0 °C 8.9 °C 1020.2 hPa SSW 9.7 km/h 16.1 km/h 49% 0.0 mm CLR
15:45 20.0 °C 8.9 °C 1020.2 hPa South 9.7 km/h 12.9 km/h 49% 0.0 mm CLR
15:50 20.1 °C 9.1 °C 1020.2 hPa South 9.7 km/h 14.5 km/h 49% 0.0 mm CLR
15:55 20.2 °C 9.1 °C 1020.2 hPa South 8.0 km/h 12.9 km/h 49% 0.0 mm CLR
16:00 20.1 °C 9.1 °C 1020.2 hPa SSW 8.0 km/h 11.3 km/h 49% 0.0 mm CLR
16:05 20.3 °C 9.2 °C 1020.2 hPa SSW 6.9 km/h 11.1 km/h 49% 0.0 mm CLR
16:10 20.4 °C 9.3 °C 1020.3 hPa SSW 8.0 km/h 14.5 km/h 49% 0.0 mm CLR
16:15 20.3 °C 9.2 °C 1020.3 hPa SSW 9.7 km/h 16.1 km/h 49% 0.0 mm CLR
16:20 20.3 °C 9.6 °C 1020.3 hPa South 9.7 km/h 14.5 km/h 50% 0.0 mm CLR
16:25 20.3 °C 9.6 °C 1020.3 hPa SSW 9.5 km/h 11.1 km/h 50% 0.0 mm CLR
16:30 20.4 °C 9.6 °C 1020.3 hPa SSW 9.7 km/h 14.5 km/h 50% 0.0 mm CLR
16:35 20.4 °C 9.7 °C 1020.3 hPa SSW 8.0 km/h 12.9 km/h 50% 0.0 mm CLR
16:40 20.5 °C 9.4 °C 1020.3 hPa SSW 8.0 km/h 12.9 km/h 49% 0.0 mm CLR
16:45 20.5 °C 9.4 °C 1020.3 hPa SSW 8.0 km/h 17.7 km/h 49% 0.0 mm CLR
16:50 20.3 °C 9.6 °C 1020.3 hPa SSW 8.0 km/h 19.3 km/h 50% 0.0 mm CLR
16:55 20.2 °C 9.4 °C 1020.3 hPa SSW 9.7 km/h 14.5 km/h 50% 0.0 mm CLR
17:00 20.1 °C 9.3 °C 1020.3 hPa SSW 9.7 km/h 16.1 km/h 50% 0.0 mm CLR
17:05 20.1 °C 9.3 °C 1020.3 hPa SW 8.4 km/h 9.3 km/h 50% 0.0 mm CLR
17:10 20.3 °C 9.6 °C 1020.4 hPa SW 8.4 km/h 4.7 km/h 50% 0.0 mm CLR
17:15 20.3 °C 9.6 °C 1020.4 hPa WSW 8.0 km/h 14.5 km/h 50% 0.0 mm CLR
17:20 20.3 °C 9.5 °C 1020.4 hPa WSW 8.0 km/h 14.5 km/h 50% 0.0 mm CLR
17:25 20.1 °C 9.7 °C 1020.4 hPa West 9.7 km/h 19.3 km/h 51% 0.0 mm CLR
17:30 19.9 °C 9.4 °C 1020.4 hPa West 9.7 km/h 19.3 km/h 51% 0.0 mm CLR
17:35 19.8 °C 9.4 °C 1020.4 hPa WNW 11.3 km/h 17.7 km/h 51% 0.0 mm CLR
17:40 19.8 °C 9.4 °C 1020.6 hPa WNW 11.3 km/h 20.9 km/h 51% 0.0 mm CLR
17:45 19.8 °C 9.4 °C 1020.6 hPa WNW 12.9 km/h 22.5 km/h 51% 0.0 mm CLR
17:50 19.7 °C 9.3 °C 1020.6 hPa WNW 12.9 km/h 24.1 km/h 51% 0.0 mm CLR
17:55 19.5 °C 9.1 °C 1020.5 hPa WNW 12.9 km/h 20.9 km/h 51% 0.0 mm CLR
18:00 19.3 °C 8.9 °C 1020.5 hPa WNW 12.9 km/h 24.1 km/h 51% 0.0 mm CLR
18:05 19.2 °C 8.8 °C 1020.5 hPa West 12.9 km/h 22.5 km/h 51% 0.0 mm CLR
18:10 19.2 °C 9.1 °C 1020.7 hPa West 12.9 km/h 20.9 km/h 52% 0.0 mm CLR
18:15 19.1 °C 9.0 °C 1020.7 hPa West 11.3 km/h 19.3 km/h 52% 0.0 mm CLR
18:20 18.9 °C 9.1 °C 1020.7 hPa WSW 11.3 km/h 12.9 km/h 53% 0.0 mm FEW
18:25 18.9 °C 9.1 °C 1020.8 hPa WSW 8.0 km/h 16.1 km/h 53% 0.0 mm FEW
18:30 18.7 °C 8.9 °C 1020.8 hPa WSW 8.0 km/h 11.3 km/h 53% 0.0 mm FEW
18:35 18.7 °C 8.9 °C 1020.8 hPa WSW 8.0 km/h 11.3 km/h 53% 0.0 mm FEW
18:40 18.6 °C 9.1 °C 1020.8 hPa WSW 8.0 km/h 8.0 km/h 54% 0.0 mm FEW
18:45 18.4 °C 10.0 °C 1020.8 hPa SSW 4.8 km/h 9.7 km/h 58% 0.0 mm FEW
18:50 18.2 °C 10.3 °C 1020.8 hPa South 4.8 km/h 9.7 km/h 60% 0.0 mm FEW
18:55 18.0 °C 10.4 °C 1021.1 hPa SSW 4.8 km/h 8.0 km/h 61% 0.0 mm FEW
19:00 17.9 °C 10.0 °C 1021.1 hPa SW 4.8 km/h 11.3 km/h 60% 0.0 mm CLR
19:05 17.9 °C 10.3 °C 1021.1 hPa WSW 4.8 km/h 8.0 km/h 61% 0.0 mm FEW
19:10 17.9 °C 10.0 °C 1021.2 hPa SW 4.8 km/h 11.3 km/h 60% 0.0 mm FEW
19:15 17.9 °C 10.3 °C 1021.2 hPa SW 4.8 km/h 9.7 km/h 61% 0.0 mm FEW
19:20 17.8 °C 10.4 °C 1021.2 hPa SW 4.8 km/h 8.0 km/h 62% 0.0 mm CLR
19:25 17.7 °C 10.6 °C 1021.6 hPa SW 3.2 km/h 9.7 km/h 63% 0.0 mm CLR
19:30 17.6 °C 10.4 °C 1021.6 hPa SW 3.2 km/h 11.3 km/h 63% 0.0 mm CLR
19:35 17.4 °C 10.6 °C 1021.6 hPa SSW 8.0 km/h 12.9 km/h 64% 0.0 mm CLR
19:40 17.3 °C 10.4 °C 1021.6 hPa SSW 8.0 km/h 11.3 km/h 64% 0.0 mm CLR
19:45 17.2 °C 10.6 °C 1021.6 hPa SSW 8.0 km/h 12.9 km/h 65% 0.0 mm CLR
19:50 17.1 °C 10.6 °C 1021.6 hPa SSW 8.0 km/h 14.5 km/h 66% 0.0 mm CLR
19:55 17.0 °C 10.1 °C 1021.5 hPa SSW 9.7 km/h 16.1 km/h 64% 0.0 mm CLR
20:00 17.2 °C 10.1 °C 1021.5 hPa SSW 9.7 km/h 14.5 km/h 63% 0.0 mm CLR
20:05 17.2 °C 10.1 °C 1021.5 hPa SSW 9.7 km/h 12.9 km/h 63% 0.0 mm CLR
20:10 17.1 °C 10.4 °C 1021.8 hPa SSW 9.7 km/h 14.5 km/h 65% 0.0 mm CLR
20:15 16.9 °C 10.5 °C 1021.8 hPa SSW 9.7 km/h 14.5 km/h 66% 0.0 mm CLR
20:20 16.8 °C 10.4 °C 1021.8 hPa SSW 9.7 km/h 11.3 km/h 66% 0.0 mm CLR
20:25 16.7 °C 10.3 °C 1021.9 hPa SW 8.0 km/h 14.5 km/h 66% 0.0 mm CLR
20:30 16.7 °C 10.1 °C 1021.9 hPa SSW 8.0 km/h 14.5 km/h 65% 0.0 mm CLR
20:35 16.8 °C 10.2 °C 1021.9 hPa SSW 8.0 km/h 12.9 km/h 65% 0.0 mm CLR
20:40 16.8 °C 10.2 °C 1021.9 hPa SW 8.0 km/h 11.3 km/h 65% 0.0 mm CLR
20:45 16.8 °C 9.9 °C 1021.9 hPa SW 4.8 km/h 9.7 km/h 64% 0.0 mm CLR
20:50 16.8 °C 9.9 °C 1021.9 hPa WSW 4.8 km/h 9.7 km/h 64% 0.0 mm CLR
20:55 16.8 °C 9.9 °C 1022.0 hPa WSW 4.8 km/h 9.7 km/h 64% 0.0 mm CLR
21:00 16.8 °C 9.5 °C 1022.0 hPa WSW 4.8 km/h 11.3 km/h 62% 0.0 mm CLR
21:05 16.8 °C 9.5 °C 1022.0 hPa SW 4.8 km/h 9.7 km/h 62% 0.0 mm CLR
21:10 16.9 °C 9.6 °C 1022.1 hPa SSW 4.8 km/h 9.7 km/h 62% 0.0 mm CLR
21:15 16.9 °C 9.6 °C 1022.1 hPa SW 4.8 km/h 9.7 km/h 62% 0.0 mm CLR
21:20 17.0 °C 9.4 °C 1022.1 hPa SW 4.8 km/h 14.5 km/h 61% 0.0 mm CLR
21:25 17.1 °C 9.3 °C 1022.1 hPa SW 8.0 km/h 9.7 km/h 60% 0.0 mm CLR
21:30 17.1 °C 9.3 °C 1022.1 hPa WSW 8.0 km/h 11.3 km/h 60% 0.0 mm CLR
21:35 16.9 °C 9.8 °C 1022.1 hPa SSW 4.8 km/h 11.3 km/h 63% 0.0 mm CLR
21:40 16.6 °C 10.0 °C 1022.1 hPa SSE 4.8 km/h 14.5 km/h 65% 0.0 mm CLR
21:45 16.3 °C 9.9 °C 1022.1 hPa South 9.7 km/h 14.5 km/h 66% 0.0 mm CLR
21:50 16.2 °C 9.8 °C 1022.1 hPa SSW 9.7 km/h 11.3 km/h 66% 0.0 mm CLR
21:55 16.2 °C 10.1 °C 1022.4 hPa SSW 8.0 km/h 8.0 km/h 67% 0.0 mm CLR
22:00 16.1 °C 9.9 °C 1022.4 hPa South 8.0 km/h 4.8 km/h 67% 0.0 mm CLR
22:05 16.1 °C 9.9 °C 1022.4 hPa SSE 1.6 km/h 8.0 km/h 67% 0.0 mm CLR
22:10 16.0 °C 10.1 °C 1022.2 hPa SSE 1.6 km/h 6.4 km/h 68% 0.0 mm CLR
22:15 15.9 °C 10.0 °C 1022.2 hPa SSE 3.2 km/h 8.0 km/h 68% 0.0 mm CLR
22:20 15.8 °C 9.9 °C 1022.2 hPa SSW 3.2 km/h 11.3 km/h 68% 0.0 mm CLR
22:25 15.8 °C 9.7 °C 1022.4 hPa SW 8.0 km/h 11.3 km/h 67% 0.0 mm CLR
22:30 15.8 °C 9.7 °C 1022.4 hPa SW 8.0 km/h 9.7 km/h 67% 0.0 mm CLR
22:35 15.7 °C 9.6 °C 1022.4 hPa SW 4.8 km/h 8.0 km/h 67% 0.0 mm CLR
22:40 15.7 °C 9.8 °C 1022.3 hPa WSW 4.8 km/h 8.0 km/h 68% 0.0 mm CLR
22:45 15.7 °C 9.6 °C 1022.3 hPa SW 3.2 km/h 9.7 km/h 67% 0.0 mm CLR
22:50 15.7 °C 9.6 °C 1022.3 hPa SSW 3.2 km/h 9.7 km/h 67% 0.0 mm CLR
22:55 15.7 °C 9.6 °C 1022.5 hPa South 4.8 km/h 9.7 km/h 67% 0.0 mm CLR
23:00 15.6 °C 9.7 °C 1022.5 hPa South 4.8 km/h 9.7 km/h 68% 0.0 mm CLR
23:05 15.4 °C 9.8 °C 1022.5 hPa South 8.0 km/h 9.7 km/h 69% 0.0 mm CLR
23:10 15.3 °C 9.8 °C 1022.4 hPa South 8.0 km/h 9.7 km/h 70% 0.0 mm CLR
23:15 15.1 °C 9.9 °C 1022.4 hPa SSE 8.0 km/h 16.1 km/h 71% 0.0 mm CLR
23:20 14.6 °C 9.8 °C 1022.4 hPa SSE 8.0 km/h 19.3 km/h 73% 0.0 mm CLR
23:25 14.3 °C 9.9 °C 1022.4 hPa SSE 9.7 km/h 11.3 km/h 75% 0.0 mm CLR
23:30 14.2 °C 9.9 °C 1022.4 hPa South 9.7 km/h 11.3 km/h 75% 0.0 mm CLR
23:35 14.3 °C 9.9 °C 1022.4 hPa SSW 8.0 km/h 11.3 km/h 75% 0.0 mm CLR
23:40 14.3 °C 9.9 °C 1022.5 hPa South 8.0 km/h 8.0 km/h 75% 0.0 mm CLR
23:45 14.3 °C 9.9 °C 1022.5 hPa SSW 3.2 km/h 9.7 km/h 75% 0.0 mm CLR
23:50 14.3 °C 9.9 °C 1022.5 hPa WSW 3.2 km/h 8.0 km/h 75% 0.0 mm CLR
23:55 14.4 °C 10.0 °C 1022.3 hPa WSW 3.2 km/h 8.0 km/h 75% 0.0 mm CLR
Murcia-Puente Tocinos, España
Compliments of Weather Underground - 2.75 mb

La estación de MeteoMurcia.com, publica sus datos en los siguientes proyectos:

Weather Underground PWS IMURCIAP2 Meteoclimatic www.awekas.at

W3Counter
Web Analytics